sat.trackr.live / text

‹ back to catalog

STARLINK-30800

NORAD 58206 · 2023-170A

PAYLOAD ACTIVE UNKNOWN

§ Identity

Operator
Country
US
Launch date
2023-11-03
Launch site
AFETR
Launch vehicle
Mass (kg)
RCS (m²)

Purposes: comms

External: N2YO · Heavens-Above · Gunter

§ Orbital elements

Epoch: 2026-09-19T03:48:37.296864Z

Period
94.27 min
Inclination
43.0014°
Eccentricity
0.0001205
Mean motion
15.27575490 rev/d
Perigee alt
482.2 km
Apogee alt
483.9 km
Semi-major
6,861.2 km
B*
9.1875e-6
RAAN
181.9992°
Arg perigee
265.3260°
Mean anomaly
94.7454°
Rev number
15,988

§ Raw data

STARLINK-308001 58206U 23170A   26262.15876501 -.00000009  00000+0  91875-5 0  99992 58206  43.0014 181.9992 0001205 265.3260  94.7454 15.27575490159885

JSON: /api/v1/satellites/58206 · /tle

For live sub-satellite position, see the globe view (requires WebGL).

§ Visibility from observer

Set your observer location to see the next 7 days of passes ≥ 10°. The values pass through the URL so the page stays shareable.

No JS? Fill the form by hand. The geolocation button needs JavaScript.